FW5488 Weather Reports


time (UTC)temp
F
wind
direction
speed
knots
gust
knots
rain 1hr
in
rain 24hr
in
rain mn
in
humidity
%
barometer
mb
20260508054604 59 99 0.9 1.7 0.00 0.00 0.00 79 1016.4
20260508054044 60 99 0.9 2.6 0.00 0.00 0.00 79 1016.4
20260508053544 60 98 1.7 3.5 0.00 0.00 0.00 79 1016.4
20260508053044 60 98 0.9 2.6 0.00 0.00 0.00 79 1016.5
20260508052546 60 98 0.9 2.6 0.00 0.00 0.00 78 1016.4
20260508052042 60 97 0.9 2.6 0.00 0.00 0.00 78 1016.5
20260508051543 60 89 0.9 2.6 0.00 0.00 0.00 78 1016.5
20260508051043 60 89 0.9 2.6 0.00 0.00 0.00 78 1016.4
20260508050543 60 94 0.0 0.9 0.00 0.00 0.00 78 1016.4
20260508050042 61 94 0.0 1.7 0.00 0.00 0.00 77 1016.3
20260508045541 61 93 0.9 1.7 0.00 0.00 0.00 77 1016.3
20260508045042 61 96 0.0 1.7 0.00 0.00 0.00 77 1016.4
20260508044554 61 94 0.9 1.7 0.00 0.00 0.00 77 1016.3
20260508044040 61 95 0.0 2.6 0.00 0.00 0.00 76 1016.4
20260508043043 61 94 0.9 2.6 0.00 0.00 0.00 76 1016.2
20260508042542 61 98 0.9 3.5 0.00 0.00 0.00 76 1016.0
20260508042040 61 84 0.0 1.7 0.00 0.00 0.00 76 1015.9
20260508041550 61 85 0.9 1.7 0.00 0.00 0.00 76 1015.8
20260508041041 61 82 0.9 0.9 0.00 0.00 0.00 76 1015.8
20260508040541 61 82 0.0 1.7 0.00 0.00 0.00 76 1015.7
20260508040045 61 82 0.9 1.7 0.00 0.00 0.00 76 1015.6
20260508035541 61 82 0.0 1.7 0.00 0.00 0.00 76 1015.6
20260508035041 61 82 0.0 1.7 0.00 0.00 0.00 76 1015.5
20260508034541 61 82 0.0 0.9 0.00 0.00 0.00 76 1015.5
20260508034041 62 82 0.0 0.9 0.00 0.00 0.00 75 1015.5
20260508033040 62 82 0.0 0.9 0.00 0.00 0.00 73 1015.4
20260508032543 63 82 0.0 0.9 0.00 0.00 0.00 73 1015.3
20260508032042 63 82 0.0 1.7 0.00 0.00 0.00 72 1015.3
20260508031554 63 82 0.9 1.7 0.00 0.00 0.00 72 1015.2
20260508031040 63 82 0.0 1.7 0.00 0.00 0.00 72 1015.2
20260508030540 64 82 0.0 2.6 0.00 0.00 0.00 71 1015.1
20260508030051 64 92 0.9 2.6 0.00 0.00 0.00 71 1015.1
20260508025538 64 122 0.0 1.7 0.00 0.00 0.00 70 1014.9
20260508025044 64 123 0.0 1.7 0.00 0.00 0.00 70 1014.9
20260508024541 65 123 0.0 3.5 0.00 0.00 0.00 70 1014.9
20260508024039 65 122 0.0 3.5 0.00 0.00 0.00 69 1014.8
20260508023046 66 162 0.9 3.5 0.00 0.00 0.00 67 1014.6
20260508022540 67 145 0.9 2.6 0.00 0.00 0.00 66 1014.6
20260508022041 68 155 0.9 3.5 0.00 0.00 0.00 66 1014.6
20260508021541 68 128 0.0 2.6 0.00 0.00 0.00 66 1014.5
20260508021040 69 131 0.9 2.6 0.00 0.00 0.00 65 1014.4
20260508020541 69 128 0.9 3.5 0.00 0.00 0.00 64 1014.4
20260508020040 69 131 0.9 3.5 0.00 0.00 0.00 64 1014.4
20260508015541 70 139 0.9 2.6 0.00 0.00 0.00 63 1014.3
20260508015040 70 121 0.9 2.6 0.00 0.00 0.00 62 1014.3
20260508014540 71 113 0.9 3.5 0.00 0.00 0.00 61 1014.3
20260508014040 71 223 0.9 4.3 0.00 0.00 0.00 61 1014.3
20260508013041 72 82 1.7 4.3 0.00 0.00 0.00 60 1014.3
20260508012541 72 113 1.7 5.2 0.00 0.00 0.00 59 1014.4
20260508012046 72 110 0.9 3.5 0.00 0.00 0.00 59 1014.4
20260508011544 72 163 0.0 3.5 0.00 0.00 0.00 59 1014.4
20260508011041 73 79 0.9 4.3 0.00 0.00 0.00 58 1014.4
20260508010540 73 113 0.9 4.3 0.00 0.00 0.00 58 1014.4
20260508010044 73 148 1.7 4.3 0.00 0.00 0.00 57 1014.4
20260508005541 74 215 0.9 4.3 0.00 0.00 0.00 58 1014.3
20260508005042 74 97 1.7 4.3 0.00 0.00 0.00 57 1014.4
20260508004540 74 131 0.9 5.2 0.00 0.00 0.00 57 1014.3
20260508004043 74 81 1.7 5.2 0.00 0.00 0.00 56 1014.4
20260508003036 74 113 1.7 5.2 0.00 0.00 0.00 56 1014.3
20260508002536 74 142 0.9 5.2 0.00 0.00 0.00 56 1014.3
20260508002038 75 123 1.7 4.3 0.00 0.00 0.00 55 1014.3
20260508001540 75 103 1.7 5.2 0.00 0.00 0.00 55 1014.2
20260508001036 75 215 2.6 5.2 0.00 0.00 0.00 55 1014.3
20260508000534 75 195 1.7 4.3 0.00 0.00 0.00 54 1014.3
20260508000035 75 117 0.9 4.3 0.00 0.00 0.00 55 1014.4
20260507235534 75 128 1.7 4.3 0.00 0.00 0.00 55 1014.5
20260507235034 75 107 1.7 5.2 0.00 0.00 0.00 55 1014.5
20260507234539 75 160 1.7 5.2 0.00 0.00 0.00 55 1014.5
20260507234034 75 102 2.6 5.2 0.00 0.00 0.00 55 1014.5
20260507233040 75 110 0.9 7.0 0.00 0.00 0.00 57 1014.4
20260507232541 75 118 3.5 7.0 0.00 0.00 0.00 56 1014.5
20260507232037 75 117 0.9 7.0 0.00 0.00 0.00 56 1014.4
20260507231547 75 120 2.6 7.0 0.00 0.00 0.00 56 1014.5
20260507231037 75 171 1.7 6.1 0.00 0.00 0.00 55 1014.5
20260507230541 76 100 2.6 5.2 0.00 0.00 0.00 55 1014.5
20260507230040 76 110 2.6 6.1 0.00 0.00 0.00 54 1014.5
20260507225538 76 136 1.7 6.1 0.00 0.00 0.00 55 1014.5
20260507225036 76 225 1.7 7.0 0.00 0.00 0.00 54 1014.5
20260507224550 76 113 2.6 7.0 0.00 0.00 0.00 54 1014.6
20260507224035 76 131 2.6 6.1 0.00 0.00 0.00 54 1014.6
20260507223029 77 104 2.6 6.1 0.00 0.00 0.00 53 1014.7
20260507222529 77 101 2.6 6.1 0.00 0.00 0.00 53 1014.7
20260507222028 77 85 2.6 6.1 0.00 0.00 0.00 53 1014.7
20260507221535 77 92 4.3 6.1 0.00 0.00 0.00 52 1014.7
20260507221030 78 131 2.6 5.2 0.00 0.00 0.00 52 1014.8
20260507220527 78 172 1.7 5.2 0.00 0.00 0.00 53 1014.8
20260507220031 78 98 0.9 5.2 0.00 0.00 0.00 53 1014.9
20260507215528 78 131 2.6 5.2 0.00 0.00 0.00 53 1014.9
20260507215025 78 142 1.7 5.2 0.00 0.00 0.00 52 1014.9
20260507214532 78 126 2.6 5.2 0.00 0.00 0.00 53 1015.0
20260507214025 78 128 2.6 6.1 0.00 0.00 0.00 52 1015.1
20260507213031 78 86 3.5 7.8 0.00 0.00 0.00 52 1015.2
20260507212523 78 162 2.6 7.0 0.00 0.00 0.00 52 1015.2
20260507212023 78 217 2.6 7.8 0.00 0.00 0.00 52 1015.2
20260507211523 78 187 2.6 7.8 0.00 0.00 0.00 52 1015.2
20260507211021 78 167 1.7 7.0 0.00 0.00 0.00 53 1015.3
20260507210523 77 156 1.7 7.0 0.00 0.00 0.00 53 1015.4
20260507210042 78 103 1.7 5.2 0.00 0.00 0.00 51 1015.4
20260507205520 78 129 2.6 6.1 0.00 0.00 0.00 51 1015.4
20260507205020 78 129 1.7 7.8 0.00 0.00 0.00 52 1015.5
20260507204519 78 97 2.6 5.2 0.00 0.00 0.00 51 1015.5
20260507204018 78 71 1.7 7.0 0.00 0.00 0.00 52 1015.6
20260507203022 78 128 2.6 7.0 0.00 0.00 0.00 52 1015.6
20260507202517 78 111 2.6 6.1 0.00 0.00 0.00 51 1015.6
20260507202020 78 96 3.5 6.1 0.00 0.00 0.00 50 1015.6
20260507201518 78 117 2.6 6.1 0.00 0.00 0.00 51 1015.8
20260507201020 78 219 0.9 6.1 0.00 0.00 0.00 52 1015.8
20260507200516 78 152 0.9 6.1 0.00 0.00 0.00 51 1015.9
20260507200022 78 179 0.9 5.2 0.00 0.00 0.00 51 1015.9
20260507195512 77 114 0.9 5.2 0.00 0.00 0.00 51 1016.2
20260507195017 77 123 2.6 7.0 0.00 0.00 0.00 52 1016.1
20260507194512 77 119 3.5 7.0 0.00 0.00 0.00 51 1016.1
20260507194010 77 128 1.7 6.1 0.00 0.00 0.00 51 1016.1
20260507193018 77 140 2.6 6.1 0.00 0.00 0.00 52 1016.3
20260507192510 77 163 1.7 7.0 0.00 0.00 0.00 52 1016.3
20260507192007 76 221 0.0 4.3 0.00 0.00 0.00 53 1016.3
20260507191520 76 114 1.7 4.3 0.00 0.00 0.00 54 1016.4
20260507191008 76 117 0.0 5.2 0.00 0.00 0.00 54 1016.4
20260507190506 76 159 1.7 5.2 0.00 0.00 0.00 54 1016.4
20260507190006 75 250 1.7 5.2 0.00 0.00 0.00 54 1016.4
20260507185505 75 129 1.7 4.3 0.00 0.00 0.00 54 1016.4
20260507185003 75 125 0.9 5.2 0.00 0.00 0.00 55 1016.5
20260507184504 74 232 2.6 5.2 0.00 0.00 0.00 55 1016.6
20260507184003 75 135 0.9 4.3 0.00 0.00 0.00 55 1016.6
20260507183003 74 100 0.9 5.2 0.00 0.00 0.00 56 1016.7
20260507182601 74 84 1.7 5.2 0.00 0.00 0.00 56 1016.6
20260507182100 73 104 0.9 4.3 0.00 0.00 0.00 56 1016.7
20260507181559 73 108 1.7 4.3 0.00 0.00 0.00 57 1016.7
20260507181059 73 82 0.9 5.2 0.00 0.00 0.00 56 1016.7
20260507180600 73 110 0.9 5.2 0.00 0.00 0.00 57 1016.7
20260507180100 73 121 0.9 5.2 0.00 0.00 0.00 57 1016.6
20260507175559 72 145 0.9 5.2 0.00 0.00 0.00 57 1016.6
20260507175057 72 134 1.7 4.3 0.00 0.00 0.00 58 1016.7
20260507174607 72 129 2.6 4.3 0.00 0.00 0.00 57 1016.7
20260507174057 72 134 1.7 4.3 0.00 0.00 0.00 57 1016.7
20260507173658 72 119 1.7 4.3 0.00 0.00 0.00 57 1016.8
20260507173132 72 153 0.9 3.5 0.00 0.00 0.00 58 1016.8
20260507172557 72 117 0.9 3.5 0.00 0.00 0.00 59 1016.9
20260507172055 72 138 0.0 4.3 0.00 0.00 0.00 58 1016.8
20260507171553 71 219 0.0 2.6 0.00 0.00 0.00 59 1016.8
20260507171053 71 110 0.9 4.3 0.00 0.00 0.00 59 1016.7
20260507170555 71 165 1.7 4.3 0.00 0.00 0.00 60 1016.6
20260507170054 71 128 0.9 3.5 0.00 0.00 0.00 59 1016.6
20260507165552 70 218 1.7 5.2 0.00 0.00 0.00 60 1016.7
20260507165050 70 148 1.7 5.2 0.00 0.00 0.00 59 1016.8
20260507164557 70 191 0.9 2.6 0.00 0.00 0.00 61 1016.7
20260507164048 69 95 1.7 2.6 0.00 0.00 0.00 61 1016.8
20260507163650 69 201 0.0 3.5 0.00 0.00 0.00 61 1016.8
20260507163146 69 201 0.9 3.5 0.00 0.00 0.00 61 1016.8
20260507162545 68 181 0.9 3.5 0.00 0.00 0.00 62 1016.8
20260507162044 68 236 0.0 4.3 0.00 0.00 0.00 62 1016.8
20260507161552 67 122 0.0 2.6 0.00 0.00 0.00 63 1016.8
20260507161042 67 91 0.9 2.6 0.00 0.00 0.00 62 1016.8
20260507160542 67 92 0.9 1.7 0.00 0.00 0.00 62 1016.9
20260507160059 67 95 0.0 3.5 0.00 0.00 0.00 63 1016.9
20260507155541 66 103 1.7 4.3 0.00 0.00 0.00 63 1016.9
20260507155043 66 120 1.7 2.6 0.00 0.00 0.00 62 1016.9
20260507154541 66 139 0.0 2.6 0.00 0.00 0.00 63 1017.0
20260507154042 66 136 1.7 2.6 0.00 0.00 0.00 64 1017.0
20260507153643 66 96 0.0 2.6 0.00 0.00 0.00 64 1016.9
20260507153044 66 96 0.0 2.6 0.00 0.00 0.00 64 1016.9
20260507152643 66 106 0.9 2.6 0.00 0.00 0.00 64 1016.9
20260507152043 66 113 0.0 1.7 0.00 0.00 0.00 63 1016.8
20260507151543 66 113 0.0 1.7 0.00 0.00 0.00 63 1016.8
20260507151042 66 113 0.0 1.7 0.00 0.00 0.00 63 1016.9
20260507150550 66 113 0.0 1.7 0.00 0.00 0.00 63 1016.9
20260507150043 67 113 0.0 1.7 0.00 0.00 0.00 62 1016.9
20260507145541 66 113 0.0 0.9 0.00 0.00 0.00 63 1016.8
20260507145041 65 113 0.0 0.9 0.00 0.00 0.00 66 1016.8
20260507144548 63 113 0.0 0.9 0.00 0.00 0.00 68 1016.8
20260507144038 63 113 0.0 0.9 0.00 0.00 0.00 68 1016.7
20260507143035 62 113 0.0 1.7 0.00 0.00 0.00 70 1016.7
20260507142534 61 113 0.0 0.0 0.00 0.00 0.00 72 1016.7
20260507142036 60 113 0.0 0.0 0.00 0.00 0.00 72 1016.7
20260507141533 60 113 0.0 0.9 0.00 0.00 0.00 71 1016.7
20260507141033 61 113 0.0 0.0 0.00 0.00 0.00 71 1016.6
20260507140532 60 113 0.0 0.0 0.00 0.00 0.00 72 1016.6
20260507140033 60 113 0.0 0.0 0.00 0.00 0.00 72 1016.5
20260507135528 59 113 0.0 0.0 0.00 0.00 0.00 73 1016.5
20260507135027 58 113 0.0 0.0 0.00 0.00 0.00 75 1016.5
20260507134526 57 113 0.0 0.9 0.00 0.00 0.00 75 1016.4
20260507134027 57 113 0.0 0.9 0.00 0.00 0.00 74 1016.4
20260507133626 57 113 0.0 0.9 0.00 0.00 0.00 74 1016.2
20260507133022 57 113 0.0 1.7 0.00 0.00 0.00 74 1016.3
20260507132521 57 113 0.0 1.7 0.00 0.00 0.00 74 1016.3
20260507132021 57 113 0.9 1.7 0.00 0.00 0.00 74 1016.3
20260507131525 57 113 0.9 1.7 0.00 0.00 0.00 74 1016.2
20260507131021 56 113 0.9 1.7 0.00 0.00 0.00 75 1016.1
20260507130522 56 113 0.9 1.7 0.00 0.00 0.00 75 1016.2
20260507130029 56 113 0.9 0.9 0.00 0.00 0.00 75 1016.1
20260507125521 56 113 0.0 1.7 0.00 0.00 0.00 75 1016.1
20260507125021 56 113 0.9 1.7 0.00 0.00 0.00 75 1016.0
20260507124520 56 113 0.9 0.9 0.00 0.00 0.00 76 1016.0
20260507124019 56 113 0.0 1.7 0.00 0.00 0.00 75 1016.1
20260507123621 56 113 0.0 0.9 0.00 0.00 0.00 75 1016.1
20260507123027 56 113 0.0 0.9 0.00 0.00 0.00 75 1016.1
20260507122519 56 113 0.9 0.9 0.00 0.00 0.00 74 1016.1
20260507122022 56 113 0.0 0.9 0.00 0.00 0.00 74 1016.1
20260507121521 56 113 0.0 0.9 0.00 0.00 0.00 74 1016.0
20260507121121 56 113 0.9 0.9 0.00 0.00 0.00 73 1016.1
20260507120518 57 113 0.0 0.9 0.00 0.00 0.00 73 1016.1
20260507120019 56 113 0.9 1.7 0.00 0.00 0.00 74 1016.2
20260507115519 56 113 0.9 1.7 0.00 0.00 0.00 75 1016.2
20260507115018 56 113 0.9 0.9 0.00 0.00 0.00 75 1016.3
20260507114518 56 113 0.0 0.9 0.00 0.00 0.00 76 1016.2
20260507114119 56 113 0.0 0.9 0.00 0.00 0.00 77 1016.1
20260507113618 56 113 0.9 1.7 0.00 0.00 0.00 77 1016.2
20260507113025 56 113 0.9 1.7 0.00 0.00 0.00 76 1016.1
20260507112518 56 113 0.9 1.7 0.00 0.00 0.00 77 1016.2
20260507112018 56 113 0.0 1.7 0.00 0.00 0.00 78 1016.2
20260507111518 56 113 0.9 1.7 0.00 0.00 0.00 78 1016.3
20260507111017 56 113 0.9 0.9 0.00 0.00 0.00 79 1016.3
20260507110518 57 113 0.9 0.9 0.00 0.00 0.00 79 1016.3
20260507110017 57 113 0.0 0.9 0.00 0.00 0.00 78 1016.4
20260507105517 57 113 0.9 1.7 0.00 0.00 0.00 78 1016.4
20260507105017 57 113 0.0 1.7 0.00 0.00 0.00 79 1016.5
20260507104517 56 113 0.0 1.7 0.00 0.00 0.00 79 1016.5
20260507104017 56 113 0.9 1.7 0.00 0.00 0.00 79 1016.5
20260507103620 56 113 0.9 1.7 0.00 0.00 0.00 79 1016.6
20260507103020 57 113 0.9 0.9 0.00 0.00 0.00 79 1016.6
20260507102519 57 113 0.0 0.9 0.00 0.00 0.00 80 1016.6
20260507102019 57 113 0.0 0.9 0.00 0.00 0.00 80 1016.6
20260507101519 57 113 0.9 0.9 0.00 0.00 0.00 79 1016.6
20260507101023 57 113 0.0 0.9 0.00 0.00 0.00 79 1016.7
20260507100521 57 113 0.0 1.7 0.00 0.00 0.00 79 1016.6
20260507100017 57 113 0.0 1.7 0.00 0.00 0.00 80 1016.6
20260507095518 57 113 0.0 0.0 0.00 0.00 0.00 80 1016.6
20260507095017 57 113 0.0 0.0 0.00 0.00 0.00 80 1016.6
20260507094520 57 113 0.0 0.9 0.00 0.00 0.00 80 1016.6
20260507094016 57 113 0.0 0.9 0.00 0.00 0.00 80 1016.7
20260507093516 56 113 0.0 0.9 0.00 0.00 0.00 81 1016.8
20260507093016 57 113 0.0 0.9 0.00 0.00 0.00 80 1016.8
20260507092517 57 113 0.0 1.7 0.00 0.00 0.00 81 1016.9
20260507092017 56 113 0.9 1.7 0.00 0.00 0.00 81 1016.9
20260507091516 56 113 0.9 1.7 0.00 0.00 0.00 81 1017.0
20260507091016 56 113 0.0 1.7 0.00 0.00 0.00 81 1017.0
20260507090616 56 122 0.9 1.7 0.00 0.00 0.00 81 1017.1
20260507090013 56 123 0.9 0.9 0.00 0.00 0.00 81 1017.1
20260507085512 56 122 0.0 0.9 0.00 0.00 0.00 81 1017.2
20260507085011 56 122 0.0 1.7 0.00 0.00 0.00 81 1017.2
20260507084514 56 122 0.0 1.7 0.00 0.00 0.00 80 1017.3
20260507084014 56 122 0.0 0.9 0.00 0.00 0.00 80 1017.3
20260507083510 57 122 0.9 0.9 0.00 0.00 0.00 80 1017.4
20260507083011 57 122 0.0 0.9 0.00 0.00 0.00 80 1017.5
20260507082511 57 122 0.0 0.9 0.00 0.00 0.00 80 1017.5
20260507082010 57 122 0.0 0.9 0.00 0.00 0.00 80 1017.5
20260507081513 56 123 0.0 0.9 0.00 0.00 0.00 81 1017.5
20260507081010 56 123 0.0 0.9 0.00 0.00 0.00 81 1017.5
20260507080610 57 123 0.0 0.9 0.00 0.00 0.00 80 1017.6
20260507080013 57 122 0.0 0.9 0.00 0.00 0.00 80 1017.6
20260507075510 57 122 0.0 0.9 0.00 0.00 0.00 80 1017.6
20260507075010 57 122 0.0 0.9 0.00 0.00 0.00 79 1017.6
20260507074510 57 121 0.0 0.9 0.00 0.00 0.00 79 1017.6
20260507074013 57 121 0.0 0.9 0.00 0.00 0.00 79 1017.6
20260507073510 57 122 0.0 0.9 0.00 0.00 0.00 80 1017.7
20260507073009 57 122 0.0 0.0 0.00 0.00 0.00 80 1017.7
20260507072510 57 122 0.0 0.0 0.00 0.00 0.00 80 1017.7
20260507072008 57 122 0.0 0.0 0.00 0.00 0.00 80 1017.6
20260507071509 57 122 0.0 0.0 0.00 0.00 0.00 80 1017.7
20260507071009 57 122 0.0 0.0 0.00 0.00 0.00 80 1017.6
20260507070609 57 123 0.0 0.9 0.00 0.00 0.00 80 1017.7
20260507070012 57 122 0.0 0.9 0.00 0.00 0.00 80 1017.7
20260507065514 57 123 0.0 0.9 0.00 0.00 0.00 79 1017.7
20260507065008 57 122 0.0 0.0 0.00 0.00 0.00 79 1017.7
20260507064508 57 122 0.0 0.9 0.00 0.00 0.00 80 1017.7
20260507064011 57 123 0.0 0.9 0.00 0.00 0.00 80 1017.7
20260507063508 57 121 0.0 0.0 0.00 0.00 0.00 80 1017.8
20260507063007 57 122 0.0 0.0 0.00 0.00 0.00 80 1017.8
20260507062508 57 122 0.0 0.0 0.00 0.00 0.00 80 1017.8
20260507062010 57 121 0.0 0.9 0.00 0.00 0.00 80 1017.7
20260507061508 57 122 0.0 0.9 0.00 0.00 0.00 80 1017.7
20260507061007 57 122 0.0 0.0 0.00 0.00 0.00 80 1017.8
20260507060607 57 122 0.0 0.0 0.00 0.00 0.00 79 1017.8
20260507060011 57 122 0.0 0.0 0.00 0.00 0.00 79 1017.8
20260507055508 57 122 0.0 0.0 0.00 0.00 0.00 79 1017.8
20260507055008 58 122 0.0 0.0 0.00 0.00 0.00 79 1017.8